Terminal Aerodrome Forecast
Issued by NWS

Home | Current Version | Previous Version | Text Only | Print | Product List | Glossary On
Versions: 1 2 3 4 5 6 7 8 9 10 11 12 13 14 15 16 17 18 19 20 21
000
FTUS41 KPBZ 232300
TAFFKL
TAF
KFKL 232326Z 2400/2424 33004KT P6SM BKN025
     FM240400 34005KT 5SM BR BKN010
     FM240900 34006KT 4SM BR BKN008
     FM241400 36008KT P6SM BKN035
      AMD LTD TO CLD VIS AND WIND=

USA.gov is the U.S. government's official web portal to all federal, state and local government web resources and services.